ANGOSAT 2

Last updated on Mon Jun 22 2026 00:03:07 GMT+0000 (Coordinated Universal Time)

1 54033U 22131A 26172.53723875 .00000134 00000+0 00000+0 0 9998 2 54033 0.0299 100.6416 0000725 327.5424 57.9510 1.00273779 13520
UTC large
Height (km)
Speed (km/s)
/
Latitude / Longitude
Inclination (degrees)
Orbital Period (minutes)
Azimuth
Elevation
Range (km)
Doppler Factor

Next 0 passes for location: London (51.5072 / 0.1276)

No passes found over London.
ANGOSAT 2